Hourly Weather Roundup
Issued by NWS Central Illinois

Home | Current Version | Previous Version | Text Only | Print | Product List | Glossary On
Versions: 1 2 3 4 5 6 7 8 9 10 11 12 13 14 15 16 17 18 19 20 21 22 23 24 25 26 27 28 29 30 31 32 33 34 35 36 37 38 39 40 41 42 43 44 45 46 47 48 49 50
000
NZUS43 KILX 222110
HWRILX

Area Weather Roundup
National Weather Service Lincoln IL
400 PM CDT TUE AUG 22 2017

NOTE:  "FAIR" indicates few or no clouds below 12,000 feet, with
       no sigificant weather and/or obstructions to visibility.


CITY           SKY/WX    TMP DP  RH WIND       PRES   REMARKS
Bloomington    MOSUNNY   78  63  59 N17G24    29.98S HX  80
Champaign      PTSUNNY   80  65  59 NW14G22   29.95S HX  82
Danville       MOSUNNY   78  66  66 NW16      29.91S HX  80
Decatur        MOSUNNY   79  63  57 NW18      29.96F HX  80
Effingham      MOSUNNY   81  67  63 W15       29.97S HX  83
Flora          CLOUDY    81  69  65 NW10G18   29.96S HX  84
Galesburg      MOSUNNY   76  58  54 NW10G18   30.02S
Jacksonville   SUNNY     79  59  51 NW12G18   30.00R HX  80
Lacon          MOSUNNY   78  56  46 NW14      29.97S
Lawrenceville  PTSUNNY   83  70  64 W12       29.95R HX  87
Litchfield     SUNNY     79  67  66 NW14      29.98F HX  81
$$


CITY           SKY/WX    TMP DP  RH WIND       PRES   REMARKS
Lincoln        SUNNY     78  63  60 NW7       29.98R HX  80
Macomb         SUNNY     77  56  48 NW14G23   30.04R
Mattoon        MOSUNNY   80  68  66 NW17      29.94F HX  83
Mt Carmel AP   PTSUNNY   80  68  65 NW9G16    29.95R HX  83
Olney-Noble AP MOSUNNY   80  67  65 NW12      29.96R HX  82
Paris AP       MOSUNNY   81  68  64 W17G23    29.94S HX  84
Peoria         MOSUNNY   80  59  48 NW6G23    29.98F HX  81
Pontiac        MOSUNNY   77  64  64 NW17      29.96S
Rantoul        MOSUNNY   78  65  64 NW17G23   29.95S HX  80
Robinson       PTSUNNY   81  67  62 NW14G22   29.94S HX  84
Springfield    MOSUNNY   81  66  60 NW14      29.99R HX  83
Taylorville    PTSUNNY   80  66  62 NW8       29.97F HX  82
$$

...REGIONAL REPORTS...


CITY           SKY/WX    TMP DP  RH WIND       PRES   REMARKS
Chicago O`Hare MOSUNNY   81  53  37 NW17G26   29.91R HX  80
Kankakee       MOSUNNY   77  63  62 NW10      29.93F
Moline         SUNNY     79  53  40 NW13G28   30.00S
Mount Sterling MOSUNNY   78  59  52 NW17      30.02R
Mount Vernon     N/A     80  68  66 VRB6      29.97S HX  83
Pittsfield     SUNNY     79  60  51 NW14      30.03S HX  80
Quincy         SUNNY     80  56  43 NW15      30.02S HX  80
Rockford       MOSUNNY   77  52  41 NW18      29.97R
$$


CITY           SKY/WX    TMP DP  RH WIND       PRES   REMARKS
Burlington     MOSUNNY   78  57  48 NW13      30.02S
Cedar Rapids   SUNNY     76  53  44 NW13      30.04S
Des Moines     MOSUNNY   77  47  34 NW12G20   30.10S
Kirksville     SUNNY     80  53  39 NW10      30.08S HX  80
Ottumwa        SUNNY     78  52  40 NW14      30.07S
St Louis       PTSUNNY   81  68  64 NW13      29.99F HX  84
$$


CITY           SKY/WX    TMP DP  RH WIND       PRES   REMARKS
Terre Haute    PTSUNNY   80  66  62 NW9       29.93S HX  82
Evansville     CLOUDY    76  72  87 CALM      29.96R
Indianapolis   PTSUNNY   80  66  62 W14G20    29.91S HX  82
Lafayette      MOSUNNY   78  67  68 NW15G25   29.90S HX  80
Madison        MOSUNNY   75  51  43 NW14G24   29.95R
Milwaukee      PTSUNNY   79  51  37 W14G28    29.90S
$$






USA.gov is the U.S. government's official web portal to all federal, state and local government web resources and services.